Date,TemperatureHighF,TemperatureAvgF,TemperatureLowF,DewpointHighF,DewpointAvgF,DewpointLowF,HumidityHigh,HumidityAvg,HumidityLow,PressureMaxIn,PressureMinIn,WindSpeedMaxMPH,WindSpeedAvgMPH,GustSpeedMaxMPH,PrecipitationSumIn
2013-1-1,17.2,13.1,7.2,4.1,-1.8,-5.6,85,52,38,30.08,29.92,19,2,19,0.00
2013-1-2,19.3,12.9,6.9,-1.4,-3.8,-7.5,53,47,36,30.22,30.06,13,2,13,0.00
2013-1-3,31.6,17.6,5.1,0.1,-6.7,-16.1,53,36,14,30.24,30.17,6,1,6,0.00
2013-1-4,39.9,28.0,20.4,12.2,5.7,-4.1,46,39,29,30.23,30.06,6,2,6,0.00
2013-1-5,33.4,26.3,19.9,7.5,-2.9,-13.4,45,28,17,30.29,30.05,14,3,14,0.00
2013-1-6,45.9,35.1,23.8,1.1,-13.1,-34.8,22,13,4,30.28,30.04,15,2,15,0.00
2013-1-7,43.6,36.2,30.2,0.8,-7.1,-17.5,20,15,8,30.09,29.85,15,2,15,0.00
2013-1-8,32.0,30.1,27.5,15.9,11.0,-7.4,55,45,18,30.26,29.83,20,5,21,0.00
2013-1-9,49.4,38.1,31.0,13.1,8.7,0.4,44,30,15,30.35,30.10,11,2,13,0.00
2013-1-10,44.7,38.2,32.6,6.3,0.8,-7.1,32,21,12,30.11,29.53,10,1,10,0.00
2013-1-11,32.9,20.0,5.5,10.0,-0.9,-11.1,66,40,30,29.65,29.31,28,4,28,0.00
2013-1-12,11.6,3.2,-6.6,-0.8,-8.3,-13.8,85,60,34,29.79,29.64,17,2,17,0.00
2013-1-13,4.8,-2.6,-9.8,-1.1,-7.0,-13.9,85,81,74,29.88,29.73,6,1,6,0.00
2013-1-14,8.3,-1.4,-9.3,1.1,-9.1,-14.8,84,70,46,29.93,29.83,14,1,14,0.00
2013-1-15,28.2,16.6,1.0,14.2,0.0,-16.6,59,47,42,30.15,29.89,17,3,17,0.00
2013-1-16,41.7,30.1,21.7,18.5,13.8,10.2,71,51,36,30.41,30.14,9,1,9,0.00
2013-1-17,43.0,31.5,21.6,15.8,9.9,-0.3,71,43,22,30.50,30.30,14,2,14,0.00
2013-1-18,37.9,34.0,31.6,4.1,1.0,-1.1,29,24,21,30.31,30.16,24,5,24,0.00
2013-1-19,42.2,35.3,30.6,2.6,-1.3,-7.6,29,21,13,30.32,30.13,19,4,19,0.00
2013-1-20,40.9,32.5,25.0,9.9,1.4,-4.3,47,26,16,30.31,30.17,13,3,13,0.00
2013-1-21,37.2,31.2,26.6,8.0,2.2,-5.3,37,29,18,30.24,30.15,23,4,23,0.00
2013-1-22,34.0,34.0,33.9,-5.0,-5.1,-5.1,18,18,18,30.18,30.17,14,4,21,0.00
2013-1-25,43.5,38.8,35.2,26.2,24.6,22.4,62,56,49,30.25,30.14,17,3,17,0.00
2013-1-26,44.1,34.5,29.7,28.6,25.8,21.5,93,73,43,30.14,29.80,4,0,9,0.00
2013-1-27,42.0,32.4,27.8,28.3,18.8,12.2,93,57,41,29.85,29.79,10,1,11,0.00
2013-1-28,41.1,29.7,16.7,23.3,15.5,11.7,91,57,36,29.81,29.62,16,2,16,0.00
2013-1-29,18.5,14.1,6.1,14.3,1.3,-8.0,90,58,35,29.85,29.62,19,2,19,0.00
2013-1-30,23.9,15.5,5.6,15.4,5.1,-8.0,86,64,46,29.85,29.69,27,5,27,0.00
2013-1-31,29.6,25.6,22.7,17.3,13.2,10.4,69,59,49,30.18,29.81,22,4,23,0.00